Find MSX

NORAD ID: 23851 Int'l Des: 1996-024 Owner: BMDO Country: US operational
LEOCIRCULARRETROGRADESSO

現在のビュー

3D地球を読み込み中...

About MSX

MSX (NORAD 23851) is a satellite launched Apr 24, 1996 by BMDO of US. It operates in LEO, CIRCULAR, RETROGRADE, SSO orbit with a mass of 2782.00 kg.

次回通過

Passes for default location (London). Set your location on the main map for personalized predictions.

高度履歴

Loading altitude history...

軌道要素

1 23851U 96024A 26194.78184843 -.00000257 00000-0 -14914-3 0 9993
2 23851 99.0426 131.4872 0007736 159.1922 200.9558 13.98394376542068
Epoch: Jul 13, 2026 • Age: 16 hours

現在のステータス

高度 910.8 km
遠地点 / 近地点 N/A
速度 7.40 km/s
衛星直下点 67.68°N, 18.9°E
打ち上げ日 Apr 24, 1996
運用期間 30.2 years
タイプ other

技術仕様

分類 Payload
質量 2782.00 kg
乾燥質量 2704.00 kg
総質量 2782.00 kg
長さ 5.10 m
直径 1.80 m
スパン 5.10 m
形状 Box + 2 Pan
製造者 APL
バスタイプ MSX
フェーズステータス In Orbit
所有者/国 BMDO/US

Most Searched